TAR700 LFSB-DTTA

Flight info

Callsign TAR700
Flight time 1h 5m
Altitude 37000
Route ELBEG Y715 AMRUP N491 TRA DCT RIPUS DCT GERSA DCT SOSON DCT ODINA DCT BETEN DCT ELB DCT VELAD DCT QUENN DCT NOLSI UA868 MEDAR
Aircraft A320/M-SDE3FGHIRWY/LB1

Departure

Time 2026-05-05 14:43
Airport EuroAirport Basel–Mulhouse–Freiburg (LFSB)

Arrival

Time 2026-05-05 15:48
Airport Tunis Carthage International Airport (DTTA)
Time Latitude Longitude Altitude Speed Heading
2026-05-05 14:22 47.59837 7.53160 887 ft 0 kts 40°
2026-05-05 14:32 47.59823 7.53144 886 ft 4 kts 27°
2026-05-05 14:32 47.59808 7.53134 886 ft 4 kts 21°
2026-05-05 14:32 47.59790 7.53120 886 ft 2 kts 35°
2026-05-05 14:33 47.59770 7.53105 886 ft 4 kts 358°
2026-05-05 14:33 47.59750 7.53112 886 ft 4 kts 336°
2026-05-05 14:33 47.59727 7.53129 886 ft 4 kts 332°
2026-05-05 14:33 47.59720 7.53135 886 ft 0 kts 334°
2026-05-05 14:35 47.59723 7.53133 886 ft 3 kts 334°
2026-05-05 14:35 47.59751 7.53112 886 ft 5 kts 333°
2026-05-05 14:36 47.59774 7.53078 886 ft 5 kts 288°
2026-05-05 14:36 47.59761 7.53037 886 ft 5 kts 211°
2026-05-05 14:36 47.59735 7.53026 886 ft 3 kts 190°
2026-05-05 14:36 47.59717 7.53021 886 ft 2 kts 188°
2026-05-05 14:37 47.59698 7.53012 886 ft 4 kts 207°
2026-05-05 14:37 47.59676 7.52959 886 ft 8 kts 246°
2026-05-05 14:37 47.59657 7.52894 887 ft 6 kts 241°
2026-05-05 14:37 47.59629 7.52870 887 ft 4 kts 182°
2026-05-05 14:38 47.59598 7.52843 887 ft 8 kts 225°
2026-05-05 14:38 47.59535 7.52833 887 ft 12 kts 160°
2026-05-05 14:38 47.59443 7.52894 888 ft 16 kts 151°
2026-05-05 14:38 47.59353 7.52960 888 ft 14 kts 154°
2026-05-05 14:39 47.59272 7.53017 888 ft 12 kts 155°
2026-05-05 14:39 47.59201 7.53065 888 ft 11 kts 155°
2026-05-05 14:39 47.59139 7.53108 888 ft 9 kts 154°
2026-05-05 14:39 47.59090 7.53143 889 ft 6 kts 154°
2026-05-05 14:40 47.59073 7.53156 890 ft 0 kts 154°
2026-05-05 14:40 47.59058 7.53167 891 ft 8 kts 154°
2026-05-05 14:40 47.58966 7.53230 888 ft 21 kts 155°
2026-05-05 14:41 47.58827 7.53327 887 ft 23 kts 155°
2026-05-05 14:41 47.58694 7.53402 887 ft 12 kts 199°
2026-05-05 14:41 47.58648 7.53325 889 ft 8 kts 245°
2026-05-05 14:41 47.58632 7.53274 891 ft 3 kts 245°
2026-05-05 14:42 47.58619 7.53229 892 ft 9 kts 250°
2026-05-05 14:42 47.58672 7.53139 892 ft 20 kts 336°
2026-05-05 14:42 47.59032 7.52889 893 ft 92 kts 335°
2026-05-05 14:42 47.59799 7.52358 893 ft 149 kts 335°
2026-05-05 14:43 47.60853 7.51652 1095 ft 177 kts 336°
2026-05-05 14:43 47.62006 7.50914 1744 ft 182 kts 335°
2026-05-05 14:43 47.63167 7.50191 2530 ft 180 kts 334°
2026-05-05 14:43 47.64358 7.49404 3013 ft 198 kts 331°
2026-05-05 14:44 47.65681 7.48470 3344 ft 225 kts 330°
2026-05-05 14:44 47.67154 7.47413 4027 ft 241 kts 330°
2026-05-05 14:44 47.68664 7.46289 4958 ft 246 kts 330°
2026-05-05 14:44 47.70358 7.45700 5744 ft 259 kts
2026-05-05 14:45 47.72080 7.46626 6450 ft 272 kts 39°
2026-05-05 14:45 47.73118 7.48847 7295 ft 265 kts 78°
2026-05-05 14:45 47.73195 7.51513 8253 ft 256 kts 103°
2026-05-05 14:45 47.72802 7.54133 9109 ft 261 kts 110°
2026-05-05 14:46 47.72289 7.56741 9898 ft 265 kts 111°
2026-05-05 14:46 47.71791 7.59366 10664 ft 270 kts 110°
2026-05-05 14:46 47.71325 7.62109 11442 ft 279 kts 108°
2026-05-05 14:46 47.70901 7.64938 12334 ft 281 kts 106°
2026-05-05 14:47 47.70517 7.67801 13189 ft 285 kts 104°
2026-05-05 14:47 47.70162 7.70701 13920 ft 288 kts 104°
2026-05-05 14:47 47.69930 7.73674 14593 ft 294 kts 92°
2026-05-05 14:47 47.70179 7.76730 15129 ft 307 kts 78°
2026-05-05 14:48 47.70909 7.79843 15283 ft 332 kts 71°
2026-05-05 14:48 47.71763 7.83160 15420 ft 355 kts 71°
2026-05-05 14:48 47.72659 7.86682 15549 ft 376 kts 71°
2026-05-05 14:48 47.73599 7.90415 15720 ft 394 kts 71°
2026-05-05 14:49 47.74553 7.94232 16239 ft 401 kts 71°
2026-05-05 14:49 47.75538 7.98181 16913 ft 404 kts 71°
2026-05-05 14:49 47.76492 8.02118 17577 ft 405 kts 75°
2026-05-05 14:49 47.77016 8.06225 18217 ft 405 kts 88°
2026-05-05 14:50 47.76933 8.10407 18775 ft 404 kts 101°
2026-05-05 14:50 47.76255 8.14443 19350 ft 403 kts 112°
2026-05-05 14:50 47.75233 8.18551 19970 ft 405 kts 113°
2026-05-05 14:50 47.72801 8.28277 21356 ft 410 kts 112°
2026-05-05 14:51 47.69114 8.38884 22768 ft 410 kts 136°
2026-05-05 14:51 47.64410 8.43587 23613 ft 411 kts 160°
2026-05-05 14:51 47.58780 8.45164 24376 ft 413 kts 175°
2026-05-05 14:51 47.53045 8.46012 25138 ft 416 kts 175°
2026-05-05 14:52 47.47258 8.46887 25890 ft 419 kts 175°
2026-05-05 14:52 47.41431 8.47753 26611 ft 422 kts 175°
2026-05-05 14:52 47.35561 8.48605 27282 ft 425 kts 175°
2026-05-05 14:52 47.29638 8.49464 27926 ft 429 kts 175°
2026-05-05 14:53 47.23661 8.50339 28525 ft 432 kts 176°
2026-05-05 14:53 47.17717 8.51202 29065 ft 435 kts 176°
2026-05-05 14:53 47.11625 8.52085 29628 ft 437 kts 176°
2026-05-05 14:53 47.05590 8.52957 30302 ft 434 kts 177°
2026-05-05 14:54 46.99570 8.53836 30958 ft 432 kts 178°
2026-05-05 14:54 46.93681 8.54701 31618 ft 429 kts 178°
2026-05-05 14:54 46.87748 8.55559 32108 ft 427 kts 178°
2026-05-05 14:54 46.81873 8.56391 32886 ft 422 kts 179°
2026-05-05 14:55 46.76050 8.57224 33503 ft 419 kts 180°
2026-05-05 14:55 46.70283 8.58049 34217 ft 414 kts 180°
2026-05-05 14:55 46.64532 8.58863 34571 ft 414 kts 180°
2026-05-05 14:55 46.58805 8.59674 35076 ft 414 kts 180°
2026-05-05 14:56 46.53052 8.60485 35512 ft 415 kts 180°
2026-05-05 14:56 46.47302 8.61302 35865 ft 416 kts 180°
2026-05-05 14:56 46.41532 8.62133 36234 ft 417 kts 179°
2026-05-05 14:56 46.35800 8.62947 36577 ft 417 kts 179°
2026-05-05 14:57 46.30011 8.63756 36931 ft 418 kts 179°
2026-05-05 14:57 46.24193 8.64562 36986 ft 421 kts 179°
2026-05-05 14:57 46.12554 8.66186 37003 ft 419 kts 180°
2026-05-05 14:58 46.06800 8.68130 37009 ft 427 kts 168°
2026-05-05 14:58 46.01128 8.70730 37004 ft 429 kts 168°
2026-05-05 14:58 45.89833 8.75805 36992 ft 427 kts 169°
2026-05-05 14:59 45.78474 8.80881 37003 ft 427 kts 169°
2026-05-05 14:59 45.67118 8.85962 37009 ft 428 kts 169°
2026-05-05 15:00 45.57606 8.90202 37006 ft 427 kts 169°
2026-05-05 15:00 45.44390 8.96053 36963 ft 427 kts 169°
2026-05-05 15:01 45.32995 9.01086 36965 ft 429 kts 169°
2026-05-05 15:01 45.21556 9.06108 36959 ft 430 kts 169°
2026-05-05 15:02 45.10175 9.11087 36966 ft 430 kts 169°
2026-05-05 15:02 44.98737 9.16079 36956 ft 431 kts 169°
2026-05-05 15:03 44.87237 9.21051 36927 ft 432 kts 169°
2026-05-05 15:03 44.75705 9.26042 36932 ft 434 kts 169°
2026-05-05 15:04 44.64341 9.30927 36948 ft 434 kts 169°
2026-05-05 15:04 44.52706 9.35900 36948 ft 436 kts 170°
2026-05-05 15:05 44.35346 9.43286 36963 ft 436 kts 170°
2026-05-05 15:06 44.23728 9.48223 36939 ft 436 kts 170°
2026-05-05 15:06 44.16384 9.51325 36940 ft 437 kts 170°
2026-05-05 15:07 44.10547 9.53791 36948 ft 438 kts 170°
2026-05-05 15:07 44.04709 9.56252 36954 ft 438 kts 170°
2026-05-05 15:08 43.98867 9.58712 36944 ft 438 kts 171°
2026-05-05 15:08 43.93067 9.61140 36950 ft 438 kts 171°
2026-05-05 15:09 43.87216 9.63578 36953 ft 439 kts 171°
2026-05-05 15:09 43.81374 9.66013 36943 ft 439 kts 171°
2026-05-05 15:10 43.75521 9.68453 36945 ft 439 kts 171°
2026-05-05 15:10 43.69690 9.70878 36954 ft 439 kts 171°
2026-05-05 15:11 43.63802 9.73314 36963 ft 440 kts 171°
2026-05-05 15:11 43.57970 9.75722 36941 ft 440 kts 171°
2026-05-05 15:12 43.52283 9.79150 36950 ft 454 kts 158°
2026-05-05 15:12 43.46777 9.83418 36929 ft 454 kts 159°
2026-05-05 15:13 43.41264 9.87676 36940 ft 454 kts 158°
2026-05-05 15:13 43.35741 9.91937 36945 ft 455 kts 159°
2026-05-05 15:14 43.30212 9.96179 36951 ft 455 kts 159°
2026-05-05 15:14 43.24688 10.00406 36958 ft 455 kts 159°
2026-05-05 15:15 43.19185 10.04618 36959 ft 455 kts 159°
2026-05-05 15:15 43.09782 10.11809 36952 ft 455 kts 159°
2026-05-05 15:16 42.91289 10.25848 37015 ft 458 kts 159°
2026-05-05 15:16 42.64886 10.44038 36976 ft 451 kts 166°
2026-05-05 15:17 42.45340 10.54713 36967 ft 451 kts 166°
2026-05-05 15:17 42.22115 10.67253 36971 ft 452 kts 166°
2026-05-05 15:18 41.98546 10.75551 37007 ft 424 kts 193°
2026-05-05 15:18 41.75001 10.72764 36991 ft 424 kts 193°
2026-05-05 15:19 41.51480 10.69986 36986 ft 424 kts 193°
2026-05-05 15:19 41.27956 10.67220 36994 ft 424 kts 193°
2026-05-05 15:20 41.04446 10.64461 36964 ft 426 kts 192°
2026-05-05 15:20 40.80773 10.61711 36984 ft 428 kts 192°
2026-05-05 15:21 40.57122 10.58972 36987 ft 430 kts 192°
2026-05-05 15:21 40.33462 10.56282 36998 ft 431 kts 192°
2026-05-05 15:22 40.09539 10.53522 37000 ft 430 kts 192°
2026-05-05 15:22 39.85676 10.50519 36993 ft 431 kts 192°
2026-05-05 15:23 39.61720 10.47574 36998 ft 432 kts 191°
2026-05-05 15:23 39.37897 10.44651 37001 ft 433 kts 191°
2026-05-05 15:24 39.13837 10.41750 37005 ft 434 kts 191°
2026-05-05 15:24 38.89770 10.38840 36996 ft 433 kts 191°
2026-05-05 15:25 38.65739 10.35958 36979 ft 434 kts 191°
2026-05-05 15:25 38.44561 10.33444 36990 ft 435 kts 191°
2026-05-05 15:26 38.24829 10.31095 36982 ft 436 kts 190°
2026-05-05 15:26 38.07411 10.29049 36983 ft 436 kts 190°
2026-05-05 15:27 38.01362 10.28402 36984 ft 437 kts 188°
2026-05-05 15:27 37.95288 10.28096 36987 ft 438 kts 186°
2026-05-05 15:27 37.92289 10.28002 36470 ft 441 kts 186°
2026-05-05 15:28 37.89146 10.27901 35117 ft 443 kts 186°
2026-05-05 15:28 37.86073 10.27789 34248 ft 439 kts 186°
2026-05-05 15:28 37.83016 10.27660 33349 ft 440 kts 186°
2026-05-05 15:28 37.79932 10.27516 32341 ft 443 kts 186°
2026-05-05 15:29 37.76841 10.27363 31341 ft 445 kts 186°
2026-05-05 15:29 37.73777 10.27207 30278 ft 449 kts 186°
2026-05-05 15:29 37.70633 10.27046 29039 ft 453 kts 186°
2026-05-05 15:29 37.67473 10.26889 27873 ft 455 kts 186°
2026-05-05 15:30 37.64313 10.26739 27118 ft 449 kts 186°
2026-05-05 15:30 37.61215 10.26599 26395 ft 443 kts 186°
2026-05-05 15:30 37.58139 10.26459 25645 ft 439 kts 186°
2026-05-05 15:30 37.55097 10.26322 24921 ft 435 kts 185°
2026-05-05 15:31 37.52106 10.26498 24161 ft 438 kts 176°
2026-05-05 15:31 37.49125 10.27369 23349 ft 442 kts 166°
2026-05-05 15:31 37.46212 10.28592 22556 ft 439 kts 165°
2026-05-05 15:31 37.43316 10.29810 21832 ft 435 kts 165°
2026-05-05 15:32 37.40450 10.31008 21145 ft 431 kts 165°
2026-05-05 15:32 37.37614 10.32185 20471 ft 427 kts 165°
2026-05-05 15:32 37.34799 10.33349 19834 ft 423 kts 165°
2026-05-05 15:32 37.32042 10.34490 19240 ft 419 kts 165°
2026-05-05 15:33 37.29280 10.35634 18631 ft 416 kts 165°
2026-05-05 15:33 37.26543 10.36765 18033 ft 412 kts 165°
2026-05-05 15:33 37.23824 10.37889 17439 ft 407 kts 166°
2026-05-05 15:33 37.21150 10.39000 16870 ft 402 kts 165°
2026-05-05 15:34 37.18499 10.40100 16283 ft 398 kts 166°
2026-05-05 15:34 37.15854 10.41192 15693 ft 395 kts 166°
2026-05-05 15:34 37.13268 10.42256 15094 ft 392 kts 166°
2026-05-05 15:34 37.10708 10.43309 14487 ft 390 kts 166°
2026-05-05 15:35 37.08135 10.44365 13863 ft 386 kts 166°
2026-05-05 15:35 37.05644 10.45393 13178 ft 368 kts 165°
2026-05-05 15:35 37.03235 10.46141 12598 ft 343 kts 180°
2026-05-05 15:35 37.00933 10.45826 12042 ft 327 kts 200°
2026-05-05 15:36 36.99012 10.44561 11511 ft 308 kts 220°
2026-05-05 15:36 36.97769 10.42509 11090 ft 291 kts 251°
2026-05-05 15:36 36.97648 10.40102 10905 ft 274 kts 283°
2026-05-05 15:36 36.98601 10.38139 10749 ft 260 kts 319°
2026-05-05 15:37 37.00168 10.37102 10696 ft 254 kts 335°
2026-05-05 15:37 37.01813 10.36304 10625 ft 253 kts 334°
2026-05-05 15:37 37.03414 10.35410 10535 ft 250 kts 325°
2026-05-05 15:37 37.04705 10.34062 10441 ft 243 kts 304°
2026-05-05 15:38 37.05548 10.32259 10336 ft 238 kts 289°
2026-05-05 15:38 37.06065 10.30285 10026 ft 240 kts 281°
2026-05-05 15:38 37.06402 10.28222 9573 ft 243 kts 276°
2026-05-05 15:38 37.06618 10.26116 9097 ft 245 kts 273°
2026-05-05 15:39 37.06721 10.23972 8650 ft 247 kts 269°
2026-05-05 15:39 37.06706 10.21854 8193 ft 242 kts 265°
2026-05-05 15:39 37.06567 10.19781 7747 ft 236 kts 261°
2026-05-05 15:39 37.06309 10.17781 7310 ft 230 kts 257°
2026-05-05 15:40 37.05930 10.15814 6877 ft 234 kts 253°
2026-05-05 15:40 37.05429 10.13864 6458 ft 236 kts 249°
2026-05-05 15:40 37.04813 10.11974 5995 ft 231 kts 245°
2026-05-05 15:40 37.04105 10.10195 5550 ft 225 kts 241°
2026-05-05 15:41 37.03320 10.08530 5114 ft 219 kts 237°
2026-05-05 15:41 37.02467 10.06985 4767 ft 213 kts 233°
2026-05-05 15:41 37.01543 10.05533 4427 ft 213 kts 228°
2026-05-05 15:41 37.00523 10.04148 4081 ft 214 kts 224°
2026-05-05 15:42 36.99437 10.02865 3733 ft 215 kts 220°
2026-05-05 15:42 36.98274 10.01663 3391 ft 216 kts 215°
2026-05-05 15:42 36.97059 10.00575 3043 ft 211 kts 212°
2026-05-05 15:42 36.95843 9.99634 2794 ft 201 kts 207°
2026-05-05 15:43 36.94606 9.99007 2530 ft 188 kts 186°
2026-05-05 15:43 36.93356 9.99103 2295 ft 176 kts 163°
2026-05-05 15:43 36.92315 9.99814 2125 ft 171 kts 141°
2026-05-05 15:43 36.91594 10.00996 2107 ft 173 kts 119°
2026-05-05 15:44 36.91172 10.02417 2107 ft 174 kts 114°
2026-05-05 15:44 36.90760 10.03838 2108 ft 174 kts 114°
2026-05-05 15:44 36.90345 10.05264 2108 ft 175 kts 113°
2026-05-05 15:44 36.89946 10.06633 2098 ft 167 kts 114°
2026-05-05 15:45 36.89534 10.08045 2114 ft 168 kts 116°
2026-05-05 15:45 36.89134 10.09420 2082 ft 168 kts 114°
2026-05-05 15:45 36.88772 10.10746 1902 ft 153 kts 111°
2026-05-05 15:45 36.88470 10.11963 1745 ft 147 kts 111°
2026-05-05 15:46 36.88176 10.13179 1661 ft 148 kts 110°
2026-05-05 15:46 36.87857 10.14421 1482 ft 149 kts 113°
2026-05-05 15:46 36.87495 10.15573 1282 ft 137 kts 118°
2026-05-05 15:46 36.87130 10.16647 1072 ft 133 kts 117°
2026-05-05 15:47 36.86776 10.17700 769 ft 129 kts 117°
2026-05-05 15:47 36.86539 10.18375 640 ft 128 kts 114°
2026-05-05 15:47 36.86085 10.19747 430 ft 129 kts 111°
2026-05-05 15:47 36.85745 10.20777 237 ft 128 kts 112°
2026-05-05 15:48 36.85412 10.21809 91 ft 126 kts 112°
2026-05-05 15:48 36.85097 10.22757 36 ft 100 kts 112°
2026-05-05 15:48 36.84896 10.23363 28 ft 51 kts 112°
2026-05-05 15:48 36.84799 10.23654 30 ft 30 kts 112°
2026-05-05 15:49 36.84739 10.23837 31 ft 21 kts 112°
2026-05-05 15:49 36.84684 10.23998 33 ft 20 kts 113°
2026-05-05 15:49 36.84618 10.24081 31 ft 10 kts 199°
2026-05-05 15:49 36.84557 10.24037 31 ft 11 kts 203°
2026-05-05 15:50 36.84482 10.23948 31 ft 19 kts 276°
2026-05-05 15:50 36.84544 10.23748 31 ft 30 kts 292°
2026-05-05 15:50 36.84631 10.23485 30 ft 34 kts 293°
2026-05-05 15:50 36.84727 10.23203 30 ft 36 kts 292°
2026-05-05 15:51 36.84825 10.22904 30 ft 38 kts 292°
2026-05-05 15:51 36.84925 10.22605 33 ft 34 kts 292°
2026-05-05 15:51 36.84974 10.22401 31 ft 11 kts 238°
2026-05-05 15:51 36.84913 10.22372 30 ft 9 kts 195°
2026-05-05 15:52 36.84864 10.22331 30 ft 12 kts 253°
2026-05-05 15:52 36.84886 10.22216 30 ft 14 kts 280°
2026-05-05 15:52 36.84848 10.22132 30 ft 10 kts 207°
2026-05-05 15:52 36.84785 10.22132 30 ft 8 kts 217°
2026-05-05 15:53 36.84786 10.22113 30 ft 0 kts 297°
2026-05-05 15:53 36.84790 10.22096 30 ft 1 kts 285°
2026-05-05 15:53 36.84791 10.22091 30 ft 0 kts 283°